Terug naar catalogus

STARLINK-35359

ActiefCommunicatieSSO
NORAD 65670·PAYLOAD·🇺🇸 United States

Gelanceerd Sep 19, 2025 vanaf Vandenberg Space Force Base

Loading…

Volgende Passages (komende 24 uur)

TLE

VersSource: CelesTrak SupGP

Epoch: Sep 15, 2026, 02:37 UTC

1 65670C 25211U   26258.10951389  .00025241  00000+0  78337-3 0  2586
2 65670  97.2832 298.4715 0000960  91.6923 158.4990 15.33434003    11

Volg STARLINK-35359 in realtime met AllMySat

Download on the App Store